Hourly Data Report for October 01, 2017

All times are specified in Local Standard Time (LST). Add 1 hour to adjust for Daylight Saving Time where and when it is observed.

NORMAN WELLS A
NORTHWEST TERRITORIES

65°16'53.000" N
126°47'55.000" W
72.50 m
2202801
71043
YVQ

Download Data

Hourly Data (October 2017)
Hourly Data Report for October 1, 2017
Temp Definition
°C
Dew Point Temp Definition
°C
Rel Hum Definition
%
Wind Dir Definition
10's deg

Wind Spd Definition
km/h
Visibility Definition
km
Stn Press Definition
kPa
Hmdx Definition


Wind Chill Definition


Weather Definition


TIME
00:00 Legend Double Dagger -3.1 -6.5 77 28 9 48.3 101.29   -7 LegendNANA
01:00 Legend Double Dagger -3.1 -7.2 74 33 8 48.3 101.30   -6 LegendNANA
02:00 Legend Double Dagger -4.5 -7.3 81 34 10 48.3 101.32   -9 Mainly Clear
03:00 Legend Double Dagger -6.1 -8.0 86 27 3 48.3 101.34   -8 LegendNANA
04:00 Legend Double Dagger -3.6 -7.4 75 1 5 48.3 101.38   -6 LegendNANA
05:00 Legend Double Dagger -3.5 -7.0 77 9 6 48.3 101.45   -6 Mainly Clear
06:00 Legend Double Dagger -2.2 -5.2 80 8 8 16.1 101.48   -5 Snow
07:00 Legend Double Dagger -1.3 -4.0 82 9 5 40.2 101.50   -3 Snow
08:00 Legend Double Dagger -1.5 -4.1 83 8 8 48.3 101.49   -5 Snow
09:00 Legend Double Dagger -1.0 -3.9 80 8 7 48.3 101.54   -4 LegendNANA
10:00 Legend Double Dagger 0.2 -2.9 80 9 7 48.3 101.56     LegendNANA
11:00 Legend Double Dagger 2.0 -2.7 71 11 10 48.3 101.58     Mostly Cloudy
12:00 Legend Double Dagger 2.5 -1.4 75 13 13 48.3 101.56     LegendNANA
13:00 Legend Double Dagger 3.8 -1.1 70 7 9 48.3 101.60     LegendNANA
14:00 Legend Double Dagger 4.2 -0.7 70 14 8 48.3 101.64     Mostly Cloudy
15:00 Legend Double Dagger 5.0 -1.5 63 11 8 48.3 101.65     LegendNANA
16:00 Legend Double Dagger 5.6 -1.2 61 11 6 48.3 101.70     LegendNANA
17:00 Legend Double Dagger 6.7 -1.4 56 10 4 48.3 101.72     Mostly Cloudy
18:00 Legend Double Dagger 6.7 -0.3 61 12 7 48.3 101.75     LegendNANA
19:00 Legend Double Dagger 5.8 -0.6 64 13 7 48.3 101.80     LegendNANA
20:00 Legend Double Dagger 3.9 -0.7 72 8 4 48.3 101.84     Mostly Cloudy
21:00 Legend Double Dagger 1.5 -1.4 81 5 7 48.3 101.86     LegendNANA
22:00 Legend Double Dagger -0.2 -2.2 86 6 8 48.3 101.90   -3 LegendNANA
23:00 Legend Double Dagger -0.5 -3.1 83   0 48.3 101.89     Mainly Clear

Notes on Data Quality.

Legend

  • E = Estimated
  • M = Missing
  • NA = Not Available
  • ‡ = Partner data that is not subject to review by the National Climate Archives
Date modified: